Location: Rounton
(54.4000°N, 1.3500°W)
Time: 00:19:24
(UTC+01:00)

Vanguard 1 - Pass Details

Date: 28 February 2024
Orbit: 653 x 3825 km, 34.2° (Epoch: 22 April)

Event Time Altitude Azimuth Distance (km) Brightness Sun altitude
Rises 00:41:55 0° 271° (W) 6,908 14.3 -43.6°
Reaches altitude 10° 00:47:13 10° 260° (W) 6,269 14.0 -43.5°
Enters shadow 00:50:30 16° 253° (WSW) 5,961 13.8 -43.4°
Maximum altitude 01:02:52 27° 213° (SSW) 5,527 - -43.0°
Drops below altitude 10° 01:19:42 10° 166° (SSE) 6,691 - -42.2°
Sets 01:25:46 0° 155° (SSE) 7,426 - -41.9°
